Location: Lima
(44.6384°N, 112.5920°W)
Time: 18:55:42
(UTC+00:00)

ITAMSAT 1 - Visible Passes

Search period start: 22 April 2024 00:00
Search period end: 02 May 2024 00:00
Orbit: 783 x 795 km, 98.8° (Epoch: 22 April)

Date Brightness Start Highest point End Pass type
(mag) Time Alt. Az. Time Alt. Az. Time Alt. Az.
22 Apr 7.7 03:50:37 13° SSE 03:55:21 87° WSW 04:00:37 10° NNW visible
22 Apr 10.3 05:33:54 10° WSW 05:35:31 11° W 05:37:08 10° WNW visible
23 Apr 7.9 03:20:30 10° SE 03:25:33 52° ENE 03:30:38 10° N visible
23 Apr 9.7 05:01:19 10° SW 05:05:16 22° W 05:09:16 10° NW visible
24 Apr 8.7 02:51:25 10° ESE 02:55:53 30° ENE 03:00:23 10° N visible
24 Apr 8.8 04:30:43 12° SSW 04:35:10 39° W 04:40:04 10° NNW visible
25 Apr 7.9 04:00:24 12° S 04:05:12 72° WSW 04:10:27 10° NNW visible
26 Apr 7.8 03:30:13 10° SSE 03:35:22 63° ENE 03:40:33 10° N visible
26 Apr 10.0 05:11:45 10° SW 05:15:14 18° W 05:18:44 10° NW visible
27 Apr 8.4 03:00:57 10° SE 03:05:40 35° ENE 03:10:23 10° N visible
27 Apr 9.1 04:40:29 10° SSW 04:45:05 32° W 04:49:46 10° NNW visible
28 Apr 8.1 04:10:11 11° S 04:15:04 60° WSW 04:20:15 10° NNW visible
29 Apr 7.7 03:39:59 10° SSE 03:45:11 76° ENE 03:50:26 10° N visible
29 Apr 10.1 05:22:22 10° WSW 05:25:12 15° W 05:28:01 10° NW visible
30 Apr 8.2 03:10:33 10° SE 03:15:26 42° ENE 03:20:21 10° N visible
30 Apr 9.4 04:50:37 10° SSW 04:55:00 27° W 04:59:24 10° NW visible
01 May 8.5 04:19:57 10° S 04:24:56 49° W 04:30:01 10° NNW visible
